TimeCST,TemperatureF,Dew PointF,Humidity,Sea Level PressureIn,VisibilityMPH,Wind Direction,Wind SpeedMPH,Gust SpeedMPH,PrecipitationIn,Events,Conditions,WindDirDegrees,DateUTC
12:53 AM,43.0,16.0,34,30.23,10.0,Calm,Calm,-,N/A,,Clear,0,2013-03-01 06:53:00
1:53 AM,39.0,18.0,43,30.23,10.0,Calm,Calm,-,N/A,,Clear,0,2013-03-01 07:53:00
2:53 AM,39.9,19.0,43,30.22,10.0,NNW,4.6,-,N/A,,Clear,340,2013-03-01 08:53:00
3:53 AM,36.0,18.0,48,30.21,10.0,NW,3.5,-,N/A,,Clear,320,2013-03-01 09:53:00
4:53 AM,35.1,19.9,54,30.21,10.0,Calm,Calm,-,N/A,,Clear,0,2013-03-01 10:53:00
5:53 AM,35.1,21.9,59,30.22,10.0,Calm,Calm,-,N/A,,Clear,0,2013-03-01 11:53:00
6:53 AM,32.0,19.9,61,30.23,10.0,Calm,Calm,-,N/A,,Clear,0,2013-03-01 12:53:00
7:53 AM,37.9,19.9,48,30.25,9.0,NNW,3.5,-,N/A,,Clear,340,2013-03-01 13:53:00
8:53 AM,45.0,21.9,40,30.26,10.0,Calm,Calm,-,N/A,,Clear,0,2013-03-01 14:53:00
9:53 AM,55.0,21.9,28,30.26,10.0,West,6.9,-,N/A,,Clear,280,2013-03-01 15:53:00
10:53 AM,60.1,17.1,19,30.23,10.0,Calm,Calm,-,N/A,,Clear,0,2013-03-01 16:53:00
11:53 AM,64.9,15.1,15,30.23,10.0,WNW,3.5,-,N/A,,Clear,300,2013-03-01 17:53:00
12:53 PM,69.1,14.0,12,30.20,10.0,WNW,11.5,21.9,N/A,,Clear,300,2013-03-01 18:53:00
1:53 PM,72.0,12.9,10,30.15,10.0,WNW,16.1,26.5,N/A,,Clear,290,2013-03-01 19:53:00
2:53 PM,75.9,10.0,8,30.12,10.0,WNW,23.0,28.8,N/A,,Clear,300,2013-03-01 20:53:00
3:53 PM,73.9,9.0,8,30.13,10.0,NW,20.7,29.9,N/A,,Clear,310,2013-03-01 21:53:00
4:53 PM,73.0,8.1,8,30.14,10.0,NNW,16.1,26.5,N/A,,Clear,330,2013-03-01 22:53:00
5:53 PM,72.0,7.0,8,30.15,10.0,NNW,12.7,27.6,N/A,,Clear,330,2013-03-01 23:53:00
6:53 PM,68.0,8.1,10,30.19,10.0,North,10.4,20.7,N/A,,Clear,350,2013-03-02 00:53:00
7:53 PM,64.4,6.8,10,30.23,10.0,North,10.4,-,N/A,,Clear,350,2013-03-02 01:53:00
8:53 PM,59.0,8.1,13,30.24,10.0,North,6.9,-,N/A,,Clear,360,2013-03-02 02:53:00
9:53 PM,55.9,10.0,16,30.26,10.0,North,4.6,-,N/A,,Clear,360,2013-03-02 03:53:00
10:53 PM,55.0,10.9,17,30.27,10.0,North,5.8,-,N/A,,Clear,10,2013-03-02 04:53:00
11:53 PM,48.9,12.0,23,30.26,10.0,Calm,Calm,-,N/A,,Clear,0,2013-03-02 05:53:00